Time,TemperatureF,DewpointF,PressureIn,WindDirection,WindDirectionDegrees,WindSpeedMPH,WindSpeedGustMPH,Humidity,HourlyPrecipIn,Conditions,Clouds,dailyrainin,SoftwareType,DateUTC
2013-05-08 00:14:00,71.2,60.0,30.07,West,275,2.0,4.0,67,0.00,,,0.00,weatherlink.com 1.10,2013-05-08 04:14:00,
2013-05-08 00:29:00,70.8,59.0,30.07,West,275,0.0,3.0,67,0.00,,,0.00,weatherlink.com 1.10,2013-05-08 04:29:00,
2013-05-08 00:44:00,70.5,59.0,30.07,West,274,0.0,4.0,68,0.00,,,0.00,weatherlink.com 1.10,2013-05-08 04:44:00,
2013-05-08 00:59:00,70.3,60.0,30.07,West,274,0.0,3.0,69,0.00,,,0.00,weatherlink.com 1.10,2013-05-08 04:59:00,
2013-05-08 01:14:00,70.0,60.0,30.07,West,274,0.0,3.0,70,0.00,,,0.00,weatherlink.com 1.10,2013-05-08 05:14:00,
2013-05-08 01:29:00,69.7,60.0,30.07,West,274,0.0,3.0,71,0.00,,,0.00,weatherlink.com 1.10,2013-05-08 05:29:00,
2013-05-08 01:44:00,69.2,60.0,30.06,West,275,4.0,7.0,72,0.00,,,0.00,weatherlink.com 1.10,2013-05-08 05:44:00,
2013-05-08 01:59:00,68.8,60.0,30.06,West,275,1.0,4.0,73,0.00,,,0.00,weatherlink.com 1.10,2013-05-08 05:59:00,
2013-05-08 02:15:00,68.5,60.0,30.05,West,275,0.0,2.0,74,0.00,,,0.00,weatherlink.com 1.10,2013-05-08 06:15:00,
2013-05-08 02:31:00,68.2,60.0,30.05,West,275,3.0,6.0,75,0.00,,,0.00,weatherlink.com 1.10,2013-05-08 06:31:00,
2013-05-08 02:45:00,67.8,60.0,30.05,West,274,0.0,4.0,76,0.00,,,0.00,weatherlink.com 1.10,2013-05-08 06:45:00,
2013-05-08 03:00:00,67.5,60.0,30.05,West,275,0.0,4.0,77,0.00,,,0.00,weatherlink.com 1.10,2013-05-08 07:00:00,
2013-05-08 03:15:00,67.2,60.0,30.05,West,275,0.0,0.0,78,0.00,,,0.00,weatherlink.com 1.10,2013-05-08 07:15:00,
2013-05-08 03:30:00,66.8,60.0,30.05,West,275,0.0,0.0,78,0.00,,,0.00,weatherlink.com 1.10,2013-05-08 07:30:00,
2013-05-08 03:45:00,66.5,60.0,30.05,West,275,0.0,5.0,79,0.00,,,0.00,weatherlink.com 1.10,2013-05-08 07:45:00,
2013-05-08 04:00:00,66.2,60.0,30.05,West,275,0.0,0.0,80,0.00,,,0.00,weatherlink.com 1.10,2013-05-08 08:00:00,
2013-05-08 04:15:00,66.0,60.0,30.06,West,275,3.0,4.0,81,0.00,,,0.00,weatherlink.com 1.10,2013-05-08 08:15:00,
2013-05-08 04:30:00,66.0,60.0,30.06,West,275,0.0,0.0,82,0.00,,,0.00,weatherlink.com 1.10,2013-05-08 08:30:00,
2013-05-08 04:45:00,65.5,60.0,30.06,West,275,2.0,3.0,82,0.00,,,0.00,weatherlink.com 1.10,2013-05-08 08:45:00,
2013-05-08 05:00:00,65.5,60.0,30.06,West,275,0.0,0.0,83,0.00,,,0.00,weatherlink.com 1.10,2013-05-08 09:00:00,
2013-05-08 05:15:00,65.4,60.0,30.06,West,275,0.0,0.0,83,0.00,,,0.00,weatherlink.com 1.10,2013-05-08 09:15:00,
2013-05-08 05:30:00,65.1,60.0,30.07,West,275,2.0,4.0,83,0.00,,,0.00,weatherlink.com 1.10,2013-05-08 09:30:00,
2013-05-08 05:45:00,64.9,60.0,30.07,West,275,1.0,4.0,84,0.00,,,0.00,weatherlink.com 1.10,2013-05-08 09:45:00,
2013-05-08 06:00:00,64.9,60.0,30.07,West,275,0.0,2.0,84,0.00,,,0.00,weatherlink.com 1.10,2013-05-08 10:00:00,
2013-05-08 06:15:00,64.7,60.0,30.08,West,275,0.0,0.0,84,0.00,,,0.00,weatherlink.com 1.10,2013-05-08 10:15:00,
2013-05-08 06:30:00,64.6,60.0,30.09,West,275,0.0,0.0,85,0.00,,,0.00,weatherlink.com 1.10,2013-05-08 10:30:00,
2013-05-08 06:45:00,64.6,60.0,30.09,West,275,0.0,0.0,85,0.00,,,0.00,weatherlink.com 1.10,2013-05-08 10:45:00,
2013-05-08 07:00:00,65.1,61.0,30.09,West,275,0.0,0.0,85,0.00,,,0.00,weatherlink.com 1.10,2013-05-08 11:00:00,
2013-05-08 07:18:00,66.0,61.0,30.10,West,275,0.0,1.0,84,0.00,,,0.00,weatherlink.com 1.10,2013-05-08 11:18:00,
2013-05-08 07:30:00,66.5,61.0,30.10,West,275,0.0,0.0,83,0.00,,,0.00,weatherlink.com 1.10,2013-05-08 11:30:00,
2013-05-08 07:45:00,68.0,61.0,30.11,West,275,0.0,0.0,79,0.00,,,0.00,weatherlink.com 1.10,2013-05-08 11:45:00,
2013-05-08 08:00:00,69.5,61.0,30.11,West,275,0.0,1.0,75,0.00,,,0.00,weatherlink.com 1.10,2013-05-08 12:00:00,
2013-05-08 08:15:00,70.8,61.0,30.12,WSW,254,0.0,0.0,70,0.00,,,0.00,weatherlink.com 1.10,2013-05-08 12:15:00,
2013-05-08 08:30:00,72.0,61.0,30.13,WSW,255,0.0,1.0,69,0.00,,,0.00,weatherlink.com 1.10,2013-05-08 12:30:00,
2013-05-08 08:45:00,73.1,61.0,30.13,WSW,255,0.0,0.0,66,0.00,,,0.00,weatherlink.com 1.10,2013-05-08 12:45:00,
2013-05-08 09:00:00,73.6,60.0,30.13,WNW,283,0.0,4.0,63,0.00,,,0.00,weatherlink.com 1.10,2013-05-08 13:00:00,
2013-05-08 09:15:00,74.5,61.0,30.13,West,270,0.0,3.0,62,0.00,,,0.00,weatherlink.com 1.10,2013-05-08 13:15:00,
2013-05-08 09:30:00,75.0,59.0,30.13,West,277,0.0,5.0,58,0.00,,,0.00,weatherlink.com 1.10,2013-05-08 13:30:00,
2013-05-08 09:45:00,76.2,59.0,30.13,SW,218,0.0,4.0,56,0.00,,,0.00,weatherlink.com 1.10,2013-05-08 13:45:00,
2013-05-08 10:00:00,76.6,58.0,30.14,WSW,252,0.0,6.0,52,0.00,,,0.00,weatherlink.com 1.10,2013-05-08 14:00:00,
2013-05-08 10:15:00,76.9,57.0,30.14,West,259,0.0,4.0,51,0.00,,,0.00,weatherlink.com 1.10,2013-05-08 14:15:00,
2013-05-08 10:30:00,77.3,57.0,30.14,West,274,2.0,7.0,50,0.00,,,0.00,weatherlink.com 1.10,2013-05-08 14:30:00,
2013-05-08 10:45:00,77.5,57.0,30.14,WNW,290,3.0,7.0,50,0.00,,,0.00,weatherlink.com 1.10,2013-05-08 14:45:00,
2013-05-08 11:00:00,78.2,57.0,30.14,West,266,0.0,6.0,48,0.00,,,0.00,weatherlink.com 1.10,2013-05-08 15:00:00,
2013-05-08 11:15:00,79.1,55.0,30.14,SSW,206,5.0,7.0,44,0.00,,,0.00,weatherlink.com 1.10,2013-05-08 15:15:00,
2013-05-08 11:30:00,79.7,56.0,30.14,South,191,2.0,7.0,45,0.00,,,0.00,weatherlink.com 1.10,2013-05-08 15:30:00,
2013-05-08 11:45:00,79.8,55.0,30.13,WSW,239,0.0,7.0,43,0.00,,,0.00,weatherlink.com 1.10,2013-05-08 15:45:00,
2013-05-08 12:00:00,80.8,56.0,30.13,SSW,212,5.0,8.0,43,0.00,,,0.00,weatherlink.com 1.10,2013-05-08 16:00:00,
2013-05-08 12:15:00,80.0,55.0,30.12,SSW,194,0.0,8.0,42,0.00,,,0.00,weatherlink.com 1.10,2013-05-08 16:15:00,
2013-05-08 12:30:00,81.3,56.0,30.12,SW,216,0.0,9.0,42,0.00,,,0.00,weatherlink.com 1.10,2013-05-08 16:30:00,
2013-05-08 12:45:00,81.7,54.0,30.12,WSW,252,5.0,12.0,39,0.00,,,0.00,weatherlink.com 1.10,2013-05-08 16:45:00,
2013-05-08 13:00:00,82.1,55.0,30.12,WSW,243,1.0,8.0,40,0.00,,,0.00,weatherlink.com 1.10,2013-05-08 17:00:00,
2013-05-08 13:16:00,82.3,56.0,30.11,SSW,194,3.0,10.0,40,0.00,,,0.00,weatherlink.com 1.10,2013-05-08 17:16:00,
2013-05-08 13:31:00,82.9,56.0,30.11,South,180,0.0,8.0,40,0.00,,,0.00,weatherlink.com 1.10,2013-05-08 17:31:00,
2013-05-08 13:46:00,83.3,56.0,30.10,SW,223,3.0,10.0,39,0.00,,,0.00,weatherlink.com 1.10,2013-05-08 17:46:00,
2013-05-08 14:01:00,84.0,55.0,30.10,SSW,196,7.0,9.0,37,0.00,,,0.00,weatherlink.com 1.10,2013-05-08 18:01:00,
2013-05-08 14:16:00,82.7,60.0,30.10,SSE,154,0.0,9.0,46,0.00,,,0.00,weatherlink.com 1.10,2013-05-08 18:16:00,
2013-05-08 14:31:00,80.0,60.0,30.10,SE,131,0.0,6.0,51,0.00,,,0.00,weatherlink.com 1.10,2013-05-08 18:31:00,
2013-05-08 14:46:00,80.0,61.0,30.09,ESE,119,5.0,11.0,52,0.00,,,0.00,weatherlink.com 1.10,2013-05-08 18:46:00,
2013-05-08 15:01:00,80.6,61.0,30.09,ESE,106,8.0,11.0,51,0.00,,,0.00,weatherlink.com 1.10,2013-05-08 19:01:00,
2013-05-08 15:16:00,80.2,61.0,30.08,SSE,150,0.0,9.0,53,0.00,,,0.00,weatherlink.com 1.10,2013-05-08 19:16:00,
2013-05-08 15:31:00,80.6,60.0,30.07,ESE,104,0.0,8.0,50,0.00,,,0.00,weatherlink.com 1.10,2013-05-08 19:31:00,
2013-05-08 15:46:00,81.3,61.0,30.07,SE,146,0.0,11.0,50,0.00,,,0.00,weatherlink.com 1.10,2013-05-08 19:46:00,
2013-05-08 16:01:00,80.8,61.0,30.07,South,181,0.0,11.0,51,0.00,,,0.00,weatherlink.com 1.10,2013-05-08 20:01:00,
2013-05-08 16:16:00,81.0,61.0,30.07,SE,135,7.0,13.0,51,0.00,,,0.00,weatherlink.com 1.10,2013-05-08 20:16:00,
2013-05-08 16:31:00,81.0,61.0,30.07,SE,137,2.0,11.0,51,0.00,,,0.00,weatherlink.com 1.10,2013-05-08 20:31:00,
2013-05-08 16:46:00,80.8,61.0,30.06,SSE,155,2.0,10.0,51,0.00,,,0.00,weatherlink.com 1.10,2013-05-08 20:46:00,
2013-05-08 17:01:00,80.8,61.0,30.06,ESE,112,7.0,9.0,51,0.00,,,0.00,weatherlink.com 1.10,2013-05-08 21:01:00,
2013-05-08 17:16:00,81.0,62.0,30.06,SE,144,7.0,10.0,52,0.00,,,0.00,weatherlink.com 1.10,2013-05-08 21:16:00,
2013-05-08 17:31:00,80.6,61.0,30.06,SE,133,5.0,9.0,51,0.00,,,0.00,weatherlink.com 1.10,2013-05-08 21:31:00,
2013-05-08 17:46:00,81.0,61.0,30.06,ESE,112,10.0,10.0,51,0.00,,,0.00,weatherlink.com 1.10,2013-05-08 21:46:00,
2013-05-08 18:01:00,80.8,61.0,30.06,SE,142,0.0,7.0,52,0.00,,,0.00,weatherlink.com 1.10,2013-05-08 22:01:00,
2013-05-08 18:16:00,80.6,62.0,30.06,SSE,149,2.0,11.0,53,0.00,,,0.00,weatherlink.com 1.10,2013-05-08 22:16:00,
2013-05-08 18:31:00,80.2,63.0,30.06,SE,137,0.0,10.0,56,0.00,,,0.00,weatherlink.com 1.10,2013-05-08 22:31:00,
2013-05-08 18:46:00,80.2,63.0,30.05,SE,139,4.0,8.0,56,0.00,,,0.00,weatherlink.com 1.10,2013-05-08 22:46:00,
2013-05-08 19:01:00,80.0,63.0,30.06,SE,143,6.0,8.0,57,0.00,,,0.00,weatherlink.com 1.10,2013-05-08 23:01:00,
2013-05-08 19:16:00,79.5,63.0,30.06,SE,144,4.0,11.0,57,0.00,,,0.00,weatherlink.com 1.10,2013-05-08 23:16:00,
2013-05-08 19:31:00,78.9,64.0,30.06,SE,139,6.0,9.0,61,0.00,,,0.00,weatherlink.com 1.10,2013-05-08 23:31:00,
2013-05-08 19:46:00,78.9,64.0,30.07,SE,142,2.0,9.0,61,0.00,,,0.00,weatherlink.com 1.10,2013-05-08 23:46:00,
2013-05-08 20:01:00,78.5,64.0,30.07,SE,142,0.0,7.0,62,0.00,,,0.00,weatherlink.com 1.10,2013-05-09 00:01:00,
2013-05-08 20:16:00,78.2,65.0,30.07,SSE,165,0.0,8.0,64,0.00,,,0.00,weatherlink.com 1.10,2013-05-09 00:16:00,
2013-05-08 20:31:00,78.2,65.0,30.07,South,170,0.0,6.0,65,0.00,,,0.00,weatherlink.com 1.10,2013-05-09 00:31:00,
2013-05-08 20:46:00,77.8,66.0,30.08,South,170,0.0,4.0,66,0.00,,,0.00,weatherlink.com 1.10,2013-05-09 00:46:00,
2013-05-08 21:01:00,77.8,66.0,30.09,South,170,0.0,1.0,66,0.00,,,0.00,weatherlink.com 1.10,2013-05-09 01:01:00,
2013-05-08 21:16:00,77.8,66.0,30.09,South,170,0.0,0.0,67,0.00,,,0.00,weatherlink.com 1.10,2013-05-09 01:16:00,
2013-05-08 21:31:00,77.5,67.0,30.10,South,170,0.0,4.0,69,0.00,,,0.00,weatherlink.com 1.10,2013-05-09 01:31:00,
2013-05-08 21:46:00,77.1,66.0,30.11,South,170,0.0,5.0,69,0.00,,,0.00,weatherlink.com 1.10,2013-05-09 01:46:00,
2013-05-08 22:01:00,76.9,66.0,30.11,South,170,0.0,0.0,70,0.00,,,0.00,weatherlink.com 1.10,2013-05-09 02:01:00,
2013-05-08 22:16:00,76.9,67.0,30.11,South,170,0.0,0.0,71,0.00,,,0.00,weatherlink.com 1.10,2013-05-09 02:16:00,
2013-05-08 22:31:00,76.7,67.0,30.12,South,170,2.0,2.0,71,0.00,,,0.00,weatherlink.com 1.10,2013-05-09 02:31:00,
2013-05-08 22:46:00,76.6,67.0,30.13,WSW,237,0.0,6.0,72,0.00,,,0.00,weatherlink.com 1.10,2013-05-09 02:46:00,
2013-05-08 23:03:00,75.5,61.0,30.13,WSW,237,3.0,4.0,62,0.00,,,0.00,weatherlink.com 1.10,2013-05-09 03:03:00,
2013-05-08 23:16:00,75.7,58.0,30.13,WSW,240,3.0,5.0,55,0.00,,,0.00,weatherlink.com 1.10,2013-05-09 03:16:00,
2013-05-08 23:31:00,75.9,58.0,30.13,WSW,252,1.0,5.0,55,0.00,,,0.00,weatherlink.com 1.10,2013-05-09 03:31:00,
2013-05-08 23:46:00,75.3,58.0,30.13,WSW,252,2.0,3.0,55,0.00,,,0.00,weatherlink.com 1.10,2013-05-09 03:46:00,